• In Belarus
  • List of Countries
  • For 7 days
  • Water Temperature
  • Satellite Maps
  • Weather Map
  • Weather Widgets
  • user-avatar
    Login

    Hourly Weather Charkhari

    Today, 21 November, Wednesday

    Time Temperature Precipitation Wind Pressure Humidity
    00:00 +24°C° 0 mm 1 mps 746 mmHg 40%
    01:00 +21°C° 0 mm 0 mps 745 mmHg 41%
    02:00 +21°C° 0 mm 0 mps 745 mmHg 42%
    03:00 +21°C° 0 mm 0 mps 745 mmHg 43%
    04:00 +22°C° 0 mm 1 mps 746 mmHg 44%
    05:00 +22°C° 0 mm 1 mps 746 mmHg 47%
    06:00 +23°C° 0 mm 1 mps 746 mmHg 45%
    07:00 +24°C° 0 mm 1 mps 746 mmHg 43%
    08:00 +25°C° 0 mm 1 mps 747 mmHg 41%
    09:00 +27°C° 0 mm 1 mps 747 mmHg 36%
    10:00 +29°C° 0 mm 2 mps 747 mmHg 32%
    11:00 +31°C° 0 mm 2 mps 747 mmHg 24%
    12:00 +31°C° 0 mm 2 mps 746 mmHg 23%
    13:00 +32°C° 0 mm 2 mps 746 mmHg 22%
    14:00 +33°C° 0 mm 3 mps 745 mmHg 21%
    15:00 +31°C° 0 mm 2 mps 745 mmHg 23%
    16:00 +29°C° 0 mm 2 mps 745 mmHg 25%
    17:00 +27°C° 0 mm 2 mps 744 mmHg 28%
    18:00 +27°C° 0 mm 2 mps 745 mmHg 29%
    19:00 +26°C° 0 mm 1 mps 745 mmHg 30%
    20:00 +25°C° 0 mm 1 mps 746 mmHg 31%
    21:00 +24°C° 0 mm 1 mps 746 mmHg 32%
    22:00 +24°C° 0 mm 1 mps 746 mmHg 33%
    23:00 +23°C° 0 mm 1 mps 746 mmHg 34%

    Tomorrow, 22 November, Thursday

    Time Temperature Precipitation Wind Pressure Humidity
    00:00 +21°C° 0 mm 0 mps 746 mmHg 35%
    01:00 +20°C° 0 mm 0 mps 746 mmHg 36%
    02:00 +20°C° 0 mm 0 mps 745 mmHg 37%
    03:00 +20°C° 0 mm 0 mps 745 mmHg 38%
    04:00 +21°C° 0 mm 1 mps 745 mmHg 38%
    05:00 +21°C° 0 mm 1 mps 746 mmHg 39%
    06:00 +22°C° 0 mm 1 mps 746 mmHg 37%
    07:00 +23°C° 0 mm 1 mps 747 mmHg 36%
    08:00 +24°C° 0 mm 1 mps 747 mmHg 34%
    09:00 +26°C° 0 mm 1 mps 747 mmHg 30%
    10:00 +28°C° 0 mm 1 mps 747 mmHg 27%
    11:00 +30°C° 0 mm 1 mps 747 mmHg 23%
    12:00 +31°C° 0 mm 1 mps 747 mmHg 21%
    13:00 +31°C° 0 mm 1 mps 746 mmHg 20%
    14:00 +32°C° 0 mm 1 mps 745 mmHg 19%
    15:00 +30°C° 0 mm 1 mps 745 mmHg 21%
    16:00 +29°C° 0 mm 1 mps 745 mmHg 23%
    17:00 +27°C° 0 mm 1 mps 745 mmHg 24%
    18:00 +27°C° 0 mm 1 mps 746 mmHg 25%
    19:00 +26°C° 0 mm 1 mps 746 mmHg 26%
    20:00 +25°C° 0 mm 1 mps 747 mmHg 27%
    21:00 +25°C° 0 mm 1 mps 747 mmHg 28%
    22:00 +25°C° 0 mm 1 mps 747 mmHg 28%
    23:00 +24°C° 0 mm 1 mps 747 mmHg 29%

    Day after tomorrow, 23 November, Friday

    Time Temperature Precipitation Wind Pressure Humidity
    00:00 +24°C° 0 mm 1 mps 747 mmHg 30%
    01:00 +23°C° 0 mm 1 mps 746 mmHg 31%
    02:00 +23°C° 0 mm 1 mps 746 mmHg 31%
    03:00 +22°C° 0 mm 1 mps 746 mmHg 32%
    04:00 +20°C° 0 mm 0 mps 746 mmHg 33%
    05:00 +19°C° 0 mm 0 mps 746 mmHg 34%
    06:00 +20°C° 0 mm 0 mps 747 mmHg 33%
    07:00 +24°C° 0 mm 1 mps 748 mmHg 32%
    08:00 +25°C° 0 mm 1 mps 748 mmHg 30%
    09:00 +27°C° 0 mm 2 mps 748 mmHg 28%
    10:00 +29°C° 0 mm 2 mps 748 mmHg 25%
    11:00 +30°C° 0 mm 3 mps 748 mmHg 22%
    12:00 +31°C° 0 mm 3 mps 747 mmHg 21%
    13:00 +32°C° 0 mm 4 mps 746 mmHg 20%
    14:00 +33°C° 0 mm 5 mps 746 mmHg 20%
    15:00 +30°C° 0 mm 4 mps 746 mmHg 22%
    16:00 +29°C° 0 mm 3 mps 746 mmHg 24%
    17:00 +27°C° 0 mm 3 mps 745 mmHg 26%
    18:00 +26°C° 0 mm 3 mps 746 mmHg 26%
    19:00 +25°C° 0 mm 2 mps 746 mmHg 27%
    20:00 +24°C° 0 mm 2 mps 747 mmHg 27%
    21:00 +24°C° 0 mm 2 mps 747 mmHg 27%
    22:00 +23°C° 0 mm 2 mps 747 mmHg 28%
    23:00 +23°C° 0 mm 2 mps 747 mmHg 28%

    24 November, Saturday

    Time Temperature Precipitation Wind Pressure Humidity
    00:00 +21°C° 0 mm 3 mps 746 mmHg 28%
    01:00 +21°C° 0 mm 3 mps 746 mmHg 29%
    02:00 +20°C° 0 mm 3 mps 746 mmHg 30%
    03:00 +20°C° 0 mm 3 mps 746 mmHg 30%
    04:00 +19°C° 0 mm 3 mps 746 mmHg 31%
    05:00 +19°C° 0 mm 3 mps 746 mmHg 32%
    06:00 +20°C° 0 mm 3 mps 746 mmHg 31%
    07:00 +21°C° 0 mm 3 mps 747 mmHg 30%
    08:00 +22°C° 0 mm 3 mps 748 mmHg 29%
    09:00 +26°C° 0 mm 4 mps 748 mmHg 26%
    10:00 +28°C° 0 mm 4 mps 747 mmHg 23%
    11:00 +30°C° 0 mm 5 mps 747 mmHg 19%
    12:00 +30°C° 0 mm 5 mps 747 mmHg 18%
    13:00 +32°C° 0 mm 5 mps 746 mmHg 18%
    14:00 +32°C° 0 mm 5 mps 745 mmHg 17%
    15:00 +29°C° 0 mm 4 mps 745 mmHg 19%
    16:00 +28°C° 0 mm 3 mps 745 mmHg 22%
    17:00 +26°C° 0 mm 2 mps 745 mmHg 24%
    18:00 +25°C° 0 mm 2 mps 745 mmHg 25%
    19:00 +24°C° 0 mm 2 mps 746 mmHg 26%
    20:00 +23°C° 0 mm 1 mps 746 mmHg 27%
    21:00 +23°C° 0 mm 1 mps 746 mmHg 28%
    22:00 +22°C° 0 mm 1 mps 746 mmHg 29%
    23:00 +22°C° 0 mm 1 mps 746 mmHg 30%

    25 November, Sunday

    Time Temperature Precipitation Wind Pressure Humidity
    00:00 +21°C° 0 mm 1 mps 746 mmHg 31%
    01:00 +21°C° 0 mm 1 mps 746 mmHg 32%
    02:00 +19°C° 0 mm 2 mps 745 mmHg 33%
    03:00 +19°C° 0 mm 2 mps 745 mmHg 34%
    04:00 +18°C° 0 mm 2 mps 745 mmHg 35%
    05:00 +18°C° 0 mm 2 mps 745 mmHg 36%
    06:00 +19°C° 0 mm 2 mps 746 mmHg 35%
    07:00 +20°C° 0 mm 2 mps 746 mmHg 33%
    08:00 +22°C° 0 mm 1 mps 747 mmHg 32%
    09:00 +24°C° 0 mm 2 mps 747 mmHg 28%
    10:00 +26°C° 0 mm 2 mps 746 mmHg 24%
    11:00 +29°C° 0 mm 2 mps 746 mmHg 19%
    12:00 +29°C° 0 mm 2 mps 745 mmHg 18%
    13:00 +30°C° 0 mm 3 mps 745 mmHg 17%
    14:00 +31°C° 0 mm 3 mps 744 mmHg 15%
    15:00 +29°C° 0 mm 3 mps 744 mmHg 18%
    16:00 +27°C° 0 mm 2 mps 744 mmHg 20%
    17:00 +26°C° 0 mm 2 mps 744 mmHg 23%
    18:00 +25°C° 0 mm 2 mps 744 mmHg 24%
    19:00 +24°C° 0 mm 1 mps 745 mmHg 26%
    20:00 +23°C° 0 mm 1 mps 745 mmHg 27%
    21:00 +22°C° 0 mm 1 mps 745 mmHg 28%
    22:00 +22°C° 0 mm 1 mps 745 mmHg 29%
    23:00 +21°C° 0 mm 1 mps 745 mmHg 31%

    26 November, Monday

    Time Temperature Precipitation Wind Pressure Humidity
    00:00 +21°C° 0 mm 1 mps 745 mmHg 32%
    01:00 +20°C° 0 mm 1 mps 745 mmHg 33%
    02:00 +18°C° 0 mm 0 mps 744 mmHg 34%
    03:00 +17°C° 0 mm 0 mps 745 mmHg 35%
    04:00 +19°C° 0 mm 1 mps 745 mmHg 36%
    05:00 +18°C° 0 mm 1 mps 745 mmHg 37%
    06:00 +20°C° 0 mm 1 mps 745 mmHg 35%
    07:00 +21°C° 0 mm 1 mps 746 mmHg 34%
    08:00 +22°C° 0 mm 1 mps 746 mmHg 32%
    09:00 +24°C° 0 mm 1 mps 746 mmHg 29%
    10:00 +26°C° 0 mm 2 mps 746 mmHg 26%
    11:00 +28°C° 0 mm 2 mps 746 mmHg 22%
    12:00 +28°C° 0 mm 2 mps 745 mmHg 21%
    13:00 +29°C° 0 mm 2 mps 744 mmHg 20%
    14:00 +30°C° 0 mm 3 mps 744 mmHg 19%
    15:00 +28°C° 0 mm 2 mps 744 mmHg 22%
    16:00 +27°C° 0 mm 2 mps 744 mmHg 25%
    17:00 +25°C° 0 mm 2 mps 744 mmHg 28%
    18:00 +24°C° 0 mm 1 mps 744 mmHg 30%
    19:00 +23°C° 0 mm 1 mps 745 mmHg 32%
    20:00 +22°C° 0 mm 1 mps 745 mmHg 34%
    21:00 +22°C° 0 mm 1 mps 745 mmHg 35%
    22:00 +21°C° 0 mm 1 mps 745 mmHg 37%
    23:00 +19°C° 0 mm 0 mps 745 mmHg 38%
    Show more